Home   Weather   Gorzów Wielkopolski   Past weeks

Flag for Poland Past Weather in Gorzów Wielkopolski, Poland — Yesterday and Last 2 Weeks

Now
36 °F

Fog.


Feels Like: 36 °F
Forecast: 37 / 51 °F
Wind: 2 mph from North

Location: Gorzow Wlkp

Current Time: Apr 28, 2017 at 6:27:30 am

Latest Report: Apr 28, 2017 at 5:00 am


Visibility: 5 mi

Pressure: 29.96 "Hg

Humidity: 88%

Dew Point: 32 °F

Location of Gorzów WielkopolskiLocation

Past Weather in Gorzów Wielkopolski — Graph

°F

Gorzów Wielkopolski Temperature Yesterday

Maximum temperature yesterday: 51 °F (at 2:00 pm)
Minimum temperature yesterday: 35 °F (at 6:00 am)
Average temperature yesterday: 44 °F

High & Low Weather Summary for the Past Weeks

 TemperatureHumidityPressure
High57 °F (Apr 21, 6:00 pm)96% (Apr 17, 7:00 am)30.57 "Hg (Apr 17, 7:00 am)
Low27 °F (Apr 20, 6:00 am)36% (Apr 20, 4:00 pm)29.55 "Hg (Apr 25, 10:00 am)
Average43 °F69%30.00 "Hg
* Reported Apr 13 5:00 am — Apr 28 5:00 am, Gorzów Wielkopolski, Weather by CustomWeather, © 2017

Note: Actual official high and low records may vary slightly from our data, if they occured in-between our weather recording intervals... More about our weather records

Advertising

Gorzów Wielkopolski Weather History for the Previous 24 Hours

Scroll right to see more
 ConditionsComfort  
Time TempWeatherWind HumidityBarometerVisibility
5:00 am
Fri, Apr 28
36 °FFog.2 mph88%29.96 "Hg5 mi
4:00 am37 °FFog.2 mph84%29.96 "Hg5 mi
3:00 am38 °FFog.1 mph79%29.97 "Hg6 mi
2:00 am38 °FFog.1 mph78%29.97 "Hg5 mi
1:00 am41 °FFog.1 mph71%29.98 "Hg5 mi
12:00 am41 °FFog.1 mph74%29.98 "Hg5 mi
11:00 pm
Thu, Apr 27
43 °FOvercast.1 mph70%29.99 "Hg6 mi
10:00 pm45 °FPassing clouds.1 mph66%29.99 "Hg6 mi
9:00 pm47 °FPassing clouds.1 mph53%29.98 "Hg6 mi
8:00 pm49 °FPartly sunny.1 mph52%29.97 "Hg9 mi
7:00 pm49 °FPartly sunny.1 mph44%29.96 "Hg22 mi
6:00 pm49 °FOvercast.6 mph47%29.97 "Hg22 mi
5:00 pm51 °FOvercast.2 mph41%29.96 "Hg22 mi
4:00 pm51 °FOvercast.2 mph45%29.96 "Hg22 mi
3:00 pm51 °FOvercast.2 mph39%29.94 "Hg22 mi
2:00 pm51 °FOvercast.2 mph42%29.94 "Hg19 mi
1:00 pm51 °FPartly sunny.1 mph51%29.95 "Hg16 mi
12:00 pm49 °FOvercast.1 mph52%29.96 "Hg16 mi
11:00 am48 °FOvercast.1 mph59%29.96 "Hg16 mi
10:00 am44 °FOvercast.1 mph70%29.95 "Hg11 mi
9:00 am41 °FPartly sunny.1 mph80%29.95 "Hg7 mi
8:00 am37 °FPartly sunny.2 mph89%29.94 "Hg6 mi
7:00 am36 °FOvercast.1 mph90%29.93 "Hg6 mi
6:00 am35 °FScattered clouds.1 mph90%29.91 "Hg12 mi
Weather by CustomWeather, © 2017

See weather overviewHow to use our weather pages